Valdosta, GA

12:07 AM EDT on March 27, 2017 (GMT -0400)
Moody Air Force Base

Weather History for KVAD - October, 2012

Change the Weather History Date:

Tuesday, October 16, 2012

  Actual Average Record
Temperature  
Mean Temperature 64 °F -  
Max Temperature 75 °F 77 °F 86 °F (2015)
Min Temperature 53 °F 56 °F 49 °F (2010)
Degree Days  
Heating Degree Days 1    
Growing Degree Days 14 (Base 50)    
Moisture  
Dew Point 51 °F    
Average Humidity 66    
Maximum Humidity 92    
Minimum Humidity 37    
Precipitation  
Precipitation 0.00 in - - ()
Sea Level Pressure  
Sea Level Pressure 29.92 in    
Wind  
Wind Speed 5 mph (NNE)    
Max Wind Speed 10 mph    
Max Gust Speed -    
Visibility 10 miles    
Events Rain    
Averages and records for this station are not official NWS values.
T = Trace of Precipitation, MM = Missing Value Source: NWS Daily Summary

Daily Weather History Graph

Daily Weather History Graph

Search for Another Location

Airport or City:

Trip Planner

Search our weather history database for the weather conditions in past years. The results will help you decide how hot, cold, wet, or windy it might be!

Date:

Astronomy

Oct. 16, 2012 Rise Set
Actual Time 7:36 AM EDT 6:59 PM EDT
Civil Twilight 7:12 AM EDT 7:23 PM EDT
Nautical Twilight 6:43 AM EDT 7:51 PM EDT
Astronomical Twilight 6:15 AM EDT 8:19 PM EDT
Moon 8:49 AM EDT (10/16) 7:52 PM EDT (10/16)
Length of Visible Light 12h 11m
Length of Day
11h 23m
New Moon, 2% of the Moon is Illuminated
Oct 16
New Moon
Oct 21
First Quarter
Oct 29
Full
Nov 6
Last Quarter
Nov 13
New

Hourly Weather History & Observations

Time (EDT) Temp. Dew Point Humidity Pressure Visibility Wind Dir Wind Speed Gust Speed Precip Events Conditions
12:55 AM 63.7 °F 57.2 °F 79% 29.89 in 10.0 mi NNW 4.6 mph - N/A   Clear
1:55 AM 60.6 °F 55.9 °F 85% 29.89 in 10.0 mi North 4.6 mph - N/A   Clear
2:55 AM 59.4 °F 53.6 °F 81% 29.91 in 10.0 mi North 4.6 mph - N/A   Clear
3:55 AM 58.5 °F 53.4 °F 83% 29.92 in 10.0 mi North 3.5 mph - N/A   Clear
4:55 AM 55.0 °F 52.7 °F 92% 29.92 in 10.0 mi North 4.6 mph - N/A   Clear
5:55 AM 54.0 °F 51.1 °F 90% 29.93 in 10.0 mi NNW 4.6 mph - N/A   Clear
6:55 AM 53.2 °F 50.4 °F 90% 29.94 in 10.0 mi North 6.9 mph - N/A   Clear
7:55 AM 53.1 °F 49.6 °F 88% 29.95 in 10.0 mi North 6.9 mph - N/A   Clear
8:55 AM 58.3 °F 50.5 °F 75% 29.96 in 10.0 mi North 8.1 mph - N/A   Clear
9:46 AM 62.6 °F 50.0 °F 63% 29.96 in 10.0 mi NNE 9.2 mph - N/A Rain Light Rain
9:55 AM 63.5 °F 50.0 °F 61% 29.96 in 10.0 mi NE 8.1 mph - 0.00 in Rain Light Rain
9:57 AM 64.4 °F 50.0 °F 59% 29.96 in 10.0 mi NNE 8.1 mph - N/A   Clear
10:55 AM 68.2 °F 49.3 °F 51% 29.96 in 10.0 mi NE 8.1 mph - 0.00 in   Clear
11:55 AM 70.2 °F 49.5 °F 48% 29.96 in 10.0 mi ENE 10.4 mph - N/A   Clear
12:55 PM 72.3 °F 48.7 °F 43% 29.94 in 10.0 mi East 6.9 mph - N/A   Clear
1:55 PM 74.3 °F 47.8 °F 39% 29.91 in 10.0 mi ENE 8.1 mph - N/A   Clear
2:55 PM 73.9 °F 48.0 °F 40% 29.88 in 10.0 mi Calm Calm - N/A   Clear
3:55 PM 75.0 °F 46.9 °F 37% 29.88 in 10.0 mi Variable 5.8 mph - N/A   Partly Cloudy
4:55 PM 73.9 °F 48.9 °F 41% 29.87 in 10.0 mi NE 5.8 mph - N/A   Partly Cloudy
5:55 PM 73.6 °F 47.3 °F 39% 29.88 in 10.0 mi North 3.5 mph - N/A   Clear
6:55 PM 67.1 °F 52.3 °F 59% 29.88 in 10.0 mi NNE 5.8 mph - N/A   Clear
7:55 PM 62.6 °F 52.9 °F 70% 29.87 in 10.0 mi Calm Calm - N/A   Clear
8:55 PM 60.8 °F 53.4 °F 77% 29.89 in 10.0 mi Calm Calm - N/A   Clear
9:55 PM 59.4 °F 52.9 °F 79% 29.89 in 10.0 mi Calm Calm - N/A   Clear
10:55 PM 60.4 °F 51.3 °F 72% 29.90 in 10.0 mi ENE 4.6 mph - N/A   Partly Cloudy
11:55 PM 60.4 °F 51.4 °F 72% 29.90 in 10.0 mi East 4.6 mph - N/A   Clear